Retour au catalogue

STARLINK-30575

ActifCommunicationsVLEO
NORAD 58052·PAYLOAD·🇺🇸 United States

Lancé Oct 13, 2023 depuis Cape Canaveral Space Force Station

Loading…

Prochains Passages (prochaines 24 heures)

TLE

FraisSource: CelesTrak SupGP

Époque: Sep 14, 2026, 14:03 UTC

1 58052C 23158B   26257.58590278 -.00045337  00000+0 -16422-2 0  2572
2 58052  43.0038  40.6239 0001326 270.3506 139.0934 15.27600087    15

Suivez STARLINK-30575 en temps réel avec AllMySat

Download on the App Store